Regional Weather Roundup
Issued by NWS Nashville, TN

Home | Current Version | Previous Version | Text Only | Print | Product List | Glossary On
Versions: 1 2 3 4 5 6 7 8 9 10 11 12 13 14 15 16 17 18 19 20 21 22 23 24 25 26 27
000
ASUS44 KOHX 231010
RWROHX
MIDDLE TENNESSEE HOURLY WEATHER ROUNDUP
NATIONAL WEATHER SERVICE NASHVILLE TN
500 AM CDT WED AUG 23 2017

NOTE: "FAIR" INDICATES FEW OR NO CLOUDS BELOW 12,000 FEET WITH
NO SIGNIFICANT WEATHER AND/OR OBSTRUCTIONS TO VISIBILITY.

* THESE REPORTS ARE NOT UNDER NWS QUALITY CONTROL AND MAY NOT
  REPORT WEATHER SUCH AS PRECIPITATION AND FOG.


TNZ005>011-023>034-057-059-062>066-078-080-231100
...NORTHERN MIDDLE TENNESSEE...

CITY           SKY/WX    TMP DP  RH WIND       PRES   REMARKS
CLARKSVILLE    CLEAR     67  65  93 N5        30.01R
CROSSVILLE     CLOUDY    69  67  93 NW3       30.03R
GALLATIN       MOCLDY    70  68  94 NW5       30.02S
DICKSON          N/A     68  68 100 CALM      30.02R
LEBANON        CLOUDY    71  69  93 CALM      29.99R
NASHVILLE      MOCLDY    72  69  90 N7        30.00S
PORTLAND       CLOUDY    70  68  94 N3        30.00R FOG
SMYRNA         CLOUDY    72  70  93 N8        30.01R
SPARTA         CLOUDY    72  70  94 CALM      29.99R
SPRINGFIELD    MOCLDY    68  68 100 CALM      29.99R
WEST NASHVILLE PTCLDY    70  68  94 CALM      29.98S
$$
TNZ056-058-060-061-075>077-079-093>097-231100
...SOUTHERN MIDDLE TENNESSEE...

CITY           SKY/WX    TMP DP  RH WIND       PRES   REMARKS
COLUMBIA       MOCLDY    72  72 100 CALM      30.00R
FAYETTEVILLE   CLOUDY    72  70  94 N7        29.99F
MCMINNVILLE    CLOUDY    72  72 100 CALM      30.01R
MURFREESBORO   CLOUDY    72  69  90 N6        29.99S
PULASKI        MOCLDY    70  70 100 NW3       30.00S
SHELBYVILLE    CLOUDY    72  70  94 NW5       30.00S
TULLAHOMA      MOCLDY    70  66  88 NW5       30.02S
WINCHESTER     CLOUDY    72  70  94 CALM      30.01R
$$


...KEY TO REMARKS...
VSB - VISIBILITY IN MILES
WCI - WIND CHILL INDEX
HX  - HEAT INDEX





USA.gov is the U.S. government's official web portal to all federal, state and local government web resources and services.